Kosmos-2385

operational
NORAD ID: 27056 Int'l Des: 2001-058 Owner: KVR Country: RU
LEOCIRCULARPOLAR

About Kosmos-2385

Description loading...

Live Position

Loading 3D Globe...

Upcoming Passes

Altitude History

Altitude vs Time

uPlot chart will show altitude changes over time

Two-Line Element Set

1 27056U 01058B 26063.14919809 .00000048 00000-0 21690-3 0 9995
2 27056 82.5350 287.0384 0006962 107.4658 45.7250 12.60563103112544
Epoch: Mar 4, 2026 • Age: 11 hours

Current Status

Altitude 1421.4 km
Velocity 7.16 km/s
Sub-Earth Point 38.62°N, 131.59°E
Launch Date Dec 28, 2001
Age 24.1 years
Type other

Technical Details

Classification Payload
Mass 225.00 kg
Dry Mass 225.00 kg
Total Mass 225.00 kg
Length 1.60 m
Diameter 0.80 m
Span 7.00 m
Shape Cyl + Ant
Manufacturer NPOPMR
Bus Type Strela-3
Phase Status In Orbit
Owner/State KVR/RU

Large Constellations

Loading constellations...